Satellite: NO-44
Catalog number: 26931
Epoch time:      11363.84792738
Element set:     932
Inclination:      067.0487 deg
RA of node:       199.3388 deg
Eccentricity:    0.0005182
Arg of perigee:   277.8256 deg
Mean anomaly:     082.2256 deg
Mean motion:   14.29743814 rev/day
Decay rate:       2.50e-06 rev/day^2
Epoch rev:           53489
Checksum:              345

Satellite: SO-50
Catalog number: 27607
Epoch time:      11362.72493297
Element set:    0650
Inclination:      064.5592 deg
RA of node:       096.3899 deg
Eccentricity:    0.0084418
Arg of perigee:   281.7292 deg
Mean anomaly:     077.4336 deg
Mean motion:   14.72125543 rev/day
Decay rate:      1.130e-05 rev/day^2
Epoch rev:           48472
Checksum:              328

Satellite: CO-55
Catalog number: 27844
Epoch time:      11362.53507136
Element set:    0275
Inclination:      098.7045 deg
RA of node:       008.4116 deg
Eccentricity:    0.0010177
Arg of perigee:   001.9309 deg
Mean anomaly:     358.1904 deg
Mean motion:   14.20935486 rev/day
Decay rate:       3.42e-06 rev/day^2
Epoch rev:           44051
Checksum:              288

Satellite: CO-57
Catalog number: 27848
Epoch time:      11363.49539791
Element set:     223
Inclination:      098.7115 deg
RA of node:       008.6187 deg
Eccentricity:    0.0010100
Arg of perigee:   005.5266 deg
Mean anomaly:     354.6033 deg
Mean motion:   14.20699296 rev/day
Decay rate:       2.62e-06 rev/day^2
Epoch rev:           44059
Checksum:              310

Satellite: AO-51
Catalog number: 28375
Epoch time:      11363.46371788
Element set:     155
Inclination:      098.1229 deg
RA of node:       331.9164 deg
Eccentricity:    0.0082823
Arg of perigee:   197.8644 deg
Mean anomaly:     161.9545 deg
Mean motion:   14.40878614 rev/day
Decay rate:       3.40e-06 rev/day^2
Epoch rev:           39418
Checksum:              336

Satellite: CP3
Catalog number: 31129
Epoch time:      11363.50038670
Element set:      55
Inclination:      097.8875 deg
RA of node:       016.3229 deg
Eccentricity:    0.0100679
Arg of perigee:   294.3751 deg
Mean anomaly:     064.6975 deg
Mean motion:   14.52820172 rev/day
Decay rate:       9.24e-06 rev/day^2
Epoch rev:           24919
Checksum:              311

Satellite: CO-65
Catalog number: 32785
Epoch time:      11362.70445284
Element set:    0189
Inclination:      097.8257 deg
RA of node:       062.6575 deg
Eccentricity:    0.0013705
Arg of perigee:   262.0424 deg
Mean anomaly:     097.9189 deg
Mean motion:   14.82564762 rev/day
Decay rate:      1.313e-05 rev/day^2
Epoch rev:           19835
Checksum:              337

Satellite: PRISM
Catalog number: 33493
Epoch time:      11363.80785484
Element set:     281
Inclination:      098.1467 deg
RA of node:       135.6979 deg
Eccentricity:    0.0020092
Arg of perigee:   127.7347 deg
Mean anomaly:     232.5698 deg
Mean motion:   14.82947905 rev/day
Decay rate:      3.514e-05 rev/day^2
Epoch rev:           15849
Checksum:              342

Satellite: SOHLA-1
Catalog number: 33496
Epoch time:      11362.96989572
Element set:    0617
Inclination:      098.0904 deg
RA of node:       111.0129 deg
Eccentricity:    0.0005768
Arg of perigee:   219.5541 deg
Mean anomaly:     140.5249 deg
Mean motion:   14.69824016 rev/day
Decay rate:       4.02e-06 rev/day^2
Epoch rev:           15709
Checksum:              310

Satellite: TISAT-1
Catalog number: 36799
Epoch time:      11363.81968871
Element set:     552
Inclination:      098.0824 deg
RA of node:       073.8575 deg
Eccentricity:    0.0015309
Arg of perigee:   008.8128 deg
Mean anomaly:     351.3330 deg
Mean motion:   14.81354307 rev/day
Decay rate:      2.046e-05 rev/day^2
Epoch rev:            7926
Checksum:              319

Satellite: STUDSAT
Catalog number: 36801
Epoch time:      11362.88317631
Element set:    0310
Inclination:      098.0875 deg
RA of node:       073.0230 deg
Eccentricity:    0.0013283
Arg of perigee:   358.1237 deg
Mean anomaly:     001.9907 deg
Mean motion:   14.82683031 rev/day
Decay rate:      5.686e-05 rev/day^2
Epoch rev:           07912
Checksum:              284

Satellite: OOREOS
Catalog number: 37224
Epoch time:      11330.25217324
Element set:    0033
Inclination:      071.9741 deg
RA of node:       041.3371 deg
Eccentricity:    0.0020052
Arg of perigee:   337.4654 deg
Mean anomaly:     022.5620 deg
Mean motion:   14.77385090 rev/day
Decay rate:      2.151e-05 rev/day^2
Epoch rev:           00594
Checksum:              243

Satellite: FO-69
Catalog number: 37227
Epoch time:      11362.47956699
Element set:    0061
Inclination:      071.9715 deg
RA of node:       330.7957 deg
Eccentricity:    0.0018911
Arg of perigee:   278.4705 deg
Mean anomaly:     081.4295 deg
Mean motion:   14.76870450 rev/day
Decay rate:       8.21e-06 rev/day^2
Epoch rev:           01074
Checksum:              332

